Location: Lower Kingswood
(51.2667°N, 0.2167°W)
Time: 12:41:15
(UTC+00:00)

Cosmos 1867 - Pass Details

Date: 26 September 2023
Orbit: 774 x 800 km, 65.0° (Epoch: 28 November)

Event Time Altitude Azimuth Distance (km) Brightness Sun altitude
Rises 04:10:39 0° 318° (NW) 3,314 6.6 -16.5°
Reaches altitude 10° 04:13:09 10° 323° (NW) 2,383 5.9 -16.1°
Maximum altitude 04:18:33 57° 42° (NE) 946 4.3 -15.3°
Drops below altitude 10° 04:23:56 10° 121° (ESE) 2,374 6.6 -14.5°
Sets 04:26:24 0° 125° (SE) 3,300 7.4 -14.2°
